Time,TemperatureF,DewpointF,PressureIn,WindDirection,WindDirectionDegrees,WindSpeedMPH,WindSpeedGustMPH,Humidity,HourlyPrecipIn,Conditions,Clouds,dailyrainin,SolarRadiationWatts/m^2,SoftwareType,DateUTC
2013-07-01 00:24:00,59.0,39.0,-100.00,ENE,72,8.0,14.0,48,0.00,,,0.00,1.000000,,2013-07-01 06:24:00,
2013-07-01 00:33:00,59.0,39.0,-100.00,ENE,72,8.0,14.0,48,0.00,,,0.00,1.000000,,2013-07-01 06:33:00,
2013-07-01 00:43:00,59.0,39.0,-100.00,ENE,72,8.0,14.0,48,0.00,,,0.00,1.000000,,2013-07-01 06:43:00,
2013-07-01 00:53:00,59.0,39.0,-100.00,ENE,72,8.0,14.0,48,0.00,,,0.00,1.000000,,2013-07-01 06:53:00,
2013-07-01 01:22:00,58.0,37.0,-100.00,ENE,72,6.0,13.0,46,0.00,,,0.00,1.000000,,2013-07-01 07:22:00,
2013-07-01 01:33:00,58.0,37.0,-100.00,ENE,72,6.0,13.0,46,0.00,,,0.00,1.000000,,2013-07-01 07:33:00,
2013-07-01 01:43:00,58.0,37.0,-100.00,ENE,72,6.0,13.0,46,0.00,,,0.00,1.000000,,2013-07-01 07:43:00,
2013-07-01 01:53:00,58.0,37.0,-100.00,ENE,72,6.0,13.0,46,0.00,,,0.00,1.000000,,2013-07-01 07:53:00,
2013-07-01 02:33:00,57.0,35.0,-100.00,NE,51,4.0,9.0,43,0.00,,,0.00,1.000000,,2013-07-01 08:33:00,
2013-07-01 02:42:00,57.0,35.0,-100.00,NE,51,4.0,9.0,43,0.00,,,0.00,1.000000,,2013-07-01 08:42:00,
2013-07-01 02:52:00,57.0,35.0,-100.00,NE,51,4.0,9.0,43,0.00,,,0.00,1.000000,,2013-07-01 08:52:00,
2013-07-01 03:22:00,57.0,34.0,-100.00,ENE,61,4.0,12.0,41,0.00,,,0.00,0.000000,,2013-07-01 09:22:00,
2013-07-01 03:34:00,57.0,34.0,-100.00,ENE,61,4.0,12.0,41,0.00,,,0.00,0.000000,,2013-07-01 09:34:00,
2013-07-01 03:43:00,57.0,34.0,-100.00,ENE,61,4.0,12.0,41,0.00,,,0.00,0.000000,,2013-07-01 09:43:00,
2013-07-01 03:53:00,57.0,34.0,-100.00,ENE,61,4.0,12.0,41,0.00,,,0.00,0.000000,,2013-07-01 09:53:00,
2013-07-01 04:22:00,57.0,30.0,-100.00,NE,54,6.0,9.0,35,0.00,,,0.00,1.000000,,2013-07-01 10:22:00,
2013-07-01 04:33:00,57.0,30.0,-100.00,NE,54,6.0,9.0,35,0.00,,,0.00,1.000000,,2013-07-01 10:33:00,
2013-07-01 04:42:00,57.0,30.0,-100.00,NE,54,6.0,9.0,35,0.00,,,0.00,1.000000,,2013-07-01 10:42:00,
2013-07-01 04:52:00,57.0,30.0,-100.00,NE,54,6.0,9.0,35,0.00,,,0.00,1.000000,,2013-07-01 10:52:00,
2013-07-01 05:22:00,58.0,28.0,-100.00,NE,44,4.0,9.0,32,0.00,,,0.00,0.000000,,2013-07-01 11:22:00,
2013-07-01 05:33:00,58.0,28.0,-100.00,NE,44,4.0,9.0,32,0.00,,,0.00,0.000000,,2013-07-01 11:33:00,
2013-07-01 05:43:00,58.0,28.0,-100.00,NE,44,4.0,9.0,32,0.00,,,0.00,0.000000,,2013-07-01 11:43:00,
2013-07-01 05:52:00,58.0,28.0,-100.00,NE,44,4.0,9.0,32,0.00,,,0.00,0.000000,,2013-07-01 11:52:00,
2013-07-01 06:22:00,57.0,27.0,-100.00,NNE,25,6.0,11.0,32,0.00,,,0.00,2.000000,,2013-07-01 12:22:00,
2013-07-01 06:33:00,57.0,27.0,-100.00,NNE,25,6.0,11.0,32,0.00,,,0.00,2.000000,,2013-07-01 12:33:00,
2013-07-01 06:43:00,57.0,27.0,-100.00,NNE,25,6.0,11.0,32,0.00,,,0.00,2.000000,,2013-07-01 12:43:00,
2013-07-01 06:53:00,57.0,27.0,-100.00,NNE,25,6.0,11.0,32,0.00,,,0.00,2.000000,,2013-07-01 12:53:00,
2013-07-01 07:33:00,61.0,30.0,-100.00,NNE,30,4.0,9.0,31,0.00,,,0.00,72.000000,,2013-07-01 13:33:00,
2013-07-01 07:43:00,61.0,30.0,-100.00,NNE,30,4.0,9.0,31,0.00,,,0.00,72.000000,,2013-07-01 13:43:00,
2013-07-01 07:53:00,61.0,30.0,-100.00,NNE,30,4.0,9.0,31,0.00,,,0.00,72.000000,,2013-07-01 13:53:00,
2013-07-01 08:34:00,65.0,34.0,-100.00,NE,55,4.0,7.0,31,0.00,,,0.00,256.000000,,2013-07-01 14:34:00,
2013-07-01 08:43:00,65.0,34.0,-100.00,NE,55,4.0,7.0,31,0.00,,,0.00,256.000000,,2013-07-01 14:43:00,
2013-07-01 08:52:00,65.0,34.0,-100.00,NE,55,4.0,7.0,31,0.00,,,0.00,256.000000,,2013-07-01 14:52:00,
2013-07-01 09:34:00,67.0,33.0,-100.00,ENE,64,5.0,10.0,28,0.00,,,0.00,442.000000,,2013-07-01 15:34:00,
2013-07-01 09:43:00,67.0,33.0,-100.00,ENE,64,5.0,10.0,28,0.00,,,0.00,442.000000,,2013-07-01 15:43:00,
2013-07-01 09:52:00,67.0,33.0,-100.00,ENE,64,5.0,10.0,28,0.00,,,0.00,442.000000,,2013-07-01 15:52:00,
2013-07-01 10:33:00,68.0,35.0,-100.00,NNE,29,6.0,14.0,29,0.00,,,0.00,641.000000,,2013-07-01 16:33:00,
2013-07-01 10:44:00,68.0,35.0,-100.00,NNE,29,6.0,14.0,29,0.00,,,0.00,641.000000,,2013-07-01 16:44:00,
2013-07-01 10:53:00,68.0,35.0,-100.00,NNE,29,6.0,14.0,29,0.00,,,0.00,641.000000,,2013-07-01 16:53:00,
2013-07-01 11:23:00,69.0,36.0,-100.00,North,352,6.0,16.0,30,0.00,,,0.00,811.000000,,2013-07-01 17:23:00,
2013-07-01 11:33:00,69.0,36.0,-100.00,North,352,6.0,16.0,30,0.00,,,0.00,811.000000,,2013-07-01 17:33:00,
2013-07-01 11:43:00,69.0,36.0,-100.00,North,352,6.0,16.0,30,0.00,,,0.00,811.000000,,2013-07-01 17:43:00,
2013-07-01 11:53:00,69.0,36.0,-100.00,North,352,6.0,16.0,30,0.00,,,0.00,811.000000,,2013-07-01 17:53:00,
2013-07-01 12:22:00,70.0,34.0,-100.00,North,2,9.0,17.0,27,0.00,,,0.00,941.000000,,2013-07-01 18:22:00,
2013-07-01 12:33:00,70.0,34.0,-100.00,North,2,9.0,17.0,27,0.00,,,0.00,941.000000,,2013-07-01 18:33:00,
2013-07-01 12:43:00,70.0,34.0,-100.00,North,2,9.0,17.0,27,0.00,,,0.00,941.000000,,2013-07-01 18:43:00,
2013-07-01 12:52:00,70.0,34.0,-100.00,North,2,9.0,17.0,27,0.00,,,0.00,941.000000,,2013-07-01 18:52:00,
2013-07-01 13:22:00,70.0,36.0,-100.00,NNE,13,10.0,20.0,29,0.00,,,0.00,971.000000,,2013-07-01 19:22:00,
2013-07-01 13:33:00,70.0,36.0,-100.00,NNE,13,10.0,20.0,29,0.00,,,0.00,971.000000,,2013-07-01 19:33:00,
2013-07-01 13:44:00,70.0,36.0,-100.00,NNE,13,10.0,20.0,29,0.00,,,0.00,971.000000,,2013-07-01 19:44:00,
2013-07-01 13:52:00,70.0,36.0,-100.00,NNE,13,10.0,20.0,29,0.00,,,0.00,971.000000,,2013-07-01 19:52:00,
2013-07-01 14:22:00,72.0,36.0,-100.00,North,351,10.0,25.0,27,0.00,,,0.00,982.000000,,2013-07-01 20:22:00,
2013-07-01 14:34:00,72.0,36.0,-100.00,North,351,10.0,25.0,27,0.00,,,0.00,982.000000,,2013-07-01 20:34:00,
2013-07-01 14:43:00,72.0,36.0,-100.00,North,351,10.0,25.0,27,0.00,,,0.00,982.000000,,2013-07-01 20:43:00,
2013-07-01 14:52:00,72.0,36.0,-100.00,North,351,10.0,25.0,27,0.00,,,0.00,982.000000,,2013-07-01 20:52:00,
2013-07-01 15:24:00,71.0,36.0,-100.00,NW,323,10.0,25.0,28,0.00,,,0.00,983.000000,,2013-07-01 21:24:00,
2013-07-01 15:34:00,71.0,36.0,-100.00,NW,323,10.0,25.0,28,0.00,,,0.00,983.000000,,2013-07-01 21:34:00,
2013-07-01 15:43:00,71.0,36.0,-100.00,NW,323,10.0,25.0,28,0.00,,,0.00,983.000000,,2013-07-01 21:43:00,
2013-07-01 15:53:00,71.0,36.0,-100.00,NW,323,10.0,25.0,28,0.00,,,0.00,983.000000,,2013-07-01 21:53:00,
2013-07-01 16:33:00,72.0,36.0,-100.00,North,355,11.0,22.0,27,0.00,,,0.00,848.000000,,2013-07-01 22:33:00,
2013-07-01 16:43:00,72.0,36.0,-100.00,North,355,11.0,22.0,27,0.00,,,0.00,848.000000,,2013-07-01 22:43:00,
2013-07-01 16:53:00,72.0,36.0,-100.00,North,355,11.0,22.0,27,0.00,,,0.00,848.000000,,2013-07-01 22:53:00,
2013-07-01 17:22:00,73.0,34.0,-100.00,North,10,10.0,23.0,24,0.00,,,0.00,755.000000,,2013-07-01 23:22:00,
2013-07-01 17:33:00,73.0,34.0,-100.00,North,10,10.0,23.0,24,0.00,,,0.00,755.000000,,2013-07-01 23:33:00,
2013-07-01 17:44:00,73.0,34.0,-100.00,North,10,10.0,23.0,24,0.00,,,0.00,755.000000,,2013-07-01 23:44:00,
2013-07-01 17:53:00,73.0,34.0,-100.00,North,10,10.0,23.0,24,0.00,,,0.00,755.000000,,2013-07-01 23:53:00,
2013-07-01 18:22:00,72.0,29.0,-100.00,NNE,14,13.0,28.0,20,0.00,,,0.00,595.000000,,2013-07-02 00:22:00,
2013-07-01 18:34:00,72.0,29.0,-100.00,NNE,14,13.0,28.0,20,0.00,,,0.00,595.000000,,2013-07-02 00:34:00,
2013-07-01 18:43:00,72.0,29.0,-100.00,NNE,14,13.0,28.0,20,0.00,,,0.00,595.000000,,2013-07-02 00:43:00,
2013-07-01 18:53:00,72.0,29.0,-100.00,NNE,14,13.0,28.0,20,0.00,,,0.00,595.000000,,2013-07-02 00:53:00,
2013-07-01 19:33:00,69.0,31.0,-100.00,NNE,27,10.0,23.0,24,0.00,,,0.00,381.000000,,2013-07-02 01:33:00,
2013-07-01 19:43:00,69.0,31.0,-100.00,NNE,27,10.0,23.0,24,0.00,,,0.00,381.000000,,2013-07-02 01:43:00,
2013-07-01 19:53:00,69.0,31.0,-100.00,NNE,27,10.0,23.0,24,0.00,,,0.00,381.000000,,2013-07-02 01:53:00,
2013-07-01 20:22:00,65.0,32.0,-100.00,NNE,21,9.0,16.0,29,0.00,,,0.00,84.000000,,2013-07-02 02:22:00,
2013-07-01 20:33:00,65.0,32.0,-100.00,NNE,21,9.0,16.0,29,0.00,,,0.00,84.000000,,2013-07-02 02:33:00,
2013-07-01 20:43:00,65.0,32.0,-100.00,NNE,21,9.0,16.0,29,0.00,,,0.00,84.000000,,2013-07-02 02:43:00,
2013-07-01 20:53:00,65.0,32.0,-100.00,NNE,21,9.0,16.0,29,0.00,,,0.00,84.000000,,2013-07-02 02:53:00,
2013-07-01 21:24:00,63.0,33.0,-100.00,NNE,23,7.0,13.0,32,0.00,,,0.00,19.000000,,2013-07-02 03:24:00,
2013-07-01 21:32:00,63.0,33.0,-100.00,NNE,23,7.0,13.0,32,0.00,,,0.00,19.000000,,2013-07-02 03:32:00,
2013-07-01 21:43:00,63.0,33.0,-100.00,NNE,23,7.0,13.0,32,0.00,,,0.00,19.000000,,2013-07-02 03:43:00,
2013-07-01 21:53:00,63.0,33.0,-100.00,NNE,23,7.0,13.0,32,0.00,,,0.00,19.000000,,2013-07-02 03:53:00,
2013-07-01 22:22:00,62.0,31.0,-100.00,NE,37,7.0,12.0,31,0.00,,,0.00,1.000000,,2013-07-02 04:22:00,
2013-07-01 22:32:00,62.0,31.0,-100.00,NE,37,7.0,12.0,31,0.00,,,0.00,1.000000,,2013-07-02 04:32:00,
2013-07-01 22:42:00,62.0,31.0,-100.00,NE,37,7.0,12.0,31,0.00,,,0.00,1.000000,,2013-07-02 04:42:00,
2013-07-01 22:53:00,62.0,31.0,-100.00,NE,37,7.0,12.0,31,0.00,,,0.00,1.000000,,2013-07-02 04:53:00,
2013-07-01 23:22:00,61.0,29.0,-100.00,ENE,74,6.0,12.0,30,0.00,,,0.00,1.000000,,2013-07-02 05:22:00,
2013-07-01 23:32:00,61.0,29.0,-100.00,ENE,74,6.0,12.0,30,0.00,,,0.00,1.000000,,2013-07-02 05:32:00,
2013-07-01 23:43:00,61.0,29.0,-100.00,ENE,74,6.0,12.0,30,0.00,,,0.00,1.000000,,2013-07-02 05:43:00,
2013-07-01 23:53:00,61.0,29.0,-100.00,ENE,74,6.0,12.0,30,0.00,,,0.00,1.000000,,2013-07-02 05:53:00,